CFE909 EGLC-EHRD

Flight info

Callsign CFE909
Flight time 0h 35m
Altitude 21000
Route ODUKU M84 CLN P44 RATLO M197 REDFA
Aircraft E190/M-SDE3GILORVW/S

Departure

Time 2026-05-06 15:48
Airport London City Airport (EGLC)

Arrival

Time 2026-05-06 16:23
Airport Rotterdam The Hague Airport (EHRD)
Time Latitude Longitude Altitude Speed Heading
2026-05-06 15:31 51.50441 0.04650 17 ft 0 kts 302°
2026-05-06 15:44 51.50446 0.04639 17 ft 3 kts 303°
2026-05-06 15:44 51.50465 0.04587 17 ft 6 kts 294°
2026-05-06 15:44 51.50476 0.04516 17 ft 6 kts 279°
2026-05-06 15:45 51.50487 0.04467 17 ft 0 kts 309°
2026-05-06 15:46 51.50505 0.04449 17 ft 6 kts 339°
2026-05-06 15:47 51.50550 0.04455 17 ft 6 kts 59°
2026-05-06 15:47 51.50553 0.04483 17 ft 0 kts 89°
2026-05-06 15:47 51.50546 0.04758 17 ft 70 kts 93°
2026-05-06 15:47 51.50505 0.06053 49 ft 151 kts 91°
2026-05-06 15:48 51.50444 0.07820 725 ft 171 kts 86°
2026-05-06 15:48 51.50846 0.09534 1704 ft 168 kts 46°
2026-05-06 15:48 51.51704 0.10885 2421 ft 184 kts 40°
2026-05-06 15:48 51.52658 0.12303 2921 ft 199 kts 40°
2026-05-06 15:49 51.53711 0.13844 2938 ft 210 kts 40°
2026-05-06 15:49 51.54794 0.15418 2896 ft 210 kts 40°
2026-05-06 15:49 51.55698 0.17214 2963 ft 212 kts 60°
2026-05-06 15:49 51.56387 0.19450 3225 ft 239 kts 61°
2026-05-06 15:50 51.57149 0.21946 3749 ft 260 kts 62°
2026-05-06 15:50 51.57950 0.24582 4633 ft 267 kts 62°
2026-05-06 15:50 51.58748 0.27210 5376 ft 264 kts 63°
2026-05-06 15:50 51.59553 0.29866 4984 ft 266 kts 62°
2026-05-06 15:51 51.60360 0.32529 4573 ft 261 kts 62°
2026-05-06 15:51 51.61130 0.35074 4524 ft 245 kts 62°
2026-05-06 15:51 51.61898 0.37610 4783 ft 267 kts 62°
2026-05-06 15:51 51.62727 0.40352 5619 ft 277 kts 63°
2026-05-06 15:52 51.63553 0.43090 6724 ft 276 kts 63°
2026-05-06 15:52 51.64383 0.45844 7825 ft 276 kts 62°
2026-05-06 15:52 51.65216 0.48612 8844 ft 278 kts 62°
2026-05-06 15:52 51.66058 0.51412 9788 ft 283 kts 62°
2026-05-06 15:53 51.66913 0.54256 10675 ft 290 kts 62°
2026-05-06 15:53 51.67803 0.57221 11453 ft 302 kts 62°
2026-05-06 15:53 51.68733 0.60324 12171 ft 316 kts 62°
2026-05-06 15:53 51.69696 0.63542 12839 ft 318 kts 62°
2026-05-06 15:54 51.70660 0.66768 12936 ft 321 kts 63°
2026-05-06 15:54 51.71629 0.70017 12965 ft 326 kts 63°
2026-05-06 15:54 51.72604 0.73288 12962 ft 328 kts 63°
2026-05-06 15:54 51.73589 0.76596 12961 ft 328 kts 63°
2026-05-06 15:55 51.74577 0.79922 12984 ft 337 kts 63°
2026-05-06 15:55 51.75626 0.83455 13666 ft 352 kts 63°
2026-05-06 15:55 51.76672 0.86985 14824 ft 350 kts 63°
2026-05-06 15:55 51.77707 0.90481 16005 ft 347 kts 63°
2026-05-06 15:56 51.78733 0.93956 17001 ft 349 kts 63°
2026-05-06 15:56 51.79777 0.97492 17862 ft 354 kts 63°
2026-05-06 15:56 51.80838 1.01091 18652 ft 360 kts 63°
2026-05-06 15:56 51.81910 1.04735 19427 ft 366 kts 63°
2026-05-06 15:57 51.83003 1.08458 20221 ft 371 kts 63°
2026-05-06 15:57 51.84103 1.12208 20874 ft 375 kts 64°
2026-05-06 15:57 51.85210 1.16087 20951 ft 389 kts 65°
2026-05-06 15:57 51.86319 1.20192 20975 ft 403 kts 65°
2026-05-06 15:58 51.87437 1.24338 20966 ft 404 kts 65°
2026-05-06 15:58 51.88546 1.28459 20958 ft 402 kts 65°
2026-05-06 15:58 51.89658 1.32595 20960 ft 402 kts 65°
2026-05-06 15:58 51.90768 1.36734 20964 ft 402 kts 65°
2026-05-06 15:59 51.91884 1.40900 20965 ft 402 kts 65°
2026-05-06 15:59 51.92990 1.45040 20969 ft 402 kts 65°
2026-05-06 15:59 51.94094 1.49177 20968 ft 402 kts 65°
2026-05-06 15:59 51.95207 1.53354 20969 ft 402 kts 65°
2026-05-06 16:00 51.96305 1.57486 20965 ft 403 kts 65°
2026-05-06 16:00 51.97408 1.61640 20956 ft 402 kts 65°
2026-05-06 16:00 51.98514 1.65814 20957 ft 403 kts 66°
2026-05-06 16:00 51.99432 1.70049 20952 ft 403 kts 75°
2026-05-06 16:01 52.00121 1.74447 20952 ft 404 kts 76°
2026-05-06 16:01 52.00811 1.78878 20952 ft 404 kts 76°
2026-05-06 16:01 52.01491 1.83251 20949 ft 404 kts 76°
2026-05-06 16:01 52.02179 1.87693 20951 ft 404 kts 76°
2026-05-06 16:02 52.02867 1.92142 20949 ft 404 kts 76°
2026-05-06 16:02 52.03537 1.96490 20951 ft 403 kts 76°
2026-05-06 16:02 52.04214 2.00890 20951 ft 402 kts 76°
2026-05-06 16:02 52.04884 2.05263 20938 ft 392 kts 76°
2026-05-06 16:03 52.05537 2.09533 20943 ft 389 kts 76°
2026-05-06 16:03 52.06183 2.13765 20947 ft 389 kts 76°
2026-05-06 16:03 52.06830 2.18019 20915 ft 390 kts 76°
2026-05-06 16:03 52.07477 2.22284 20537 ft 390 kts 76°
2026-05-06 16:04 52.08120 2.26535 20115 ft 387 kts 76°
2026-05-06 16:04 52.08755 2.30744 19690 ft 384 kts 76°
2026-05-06 16:04 52.09384 2.34926 19273 ft 381 kts 76°
2026-05-06 16:04 52.10009 2.39089 18856 ft 379 kts 75°
2026-05-06 16:05 52.10628 2.43222 18436 ft 376 kts 75°
2026-05-06 16:05 52.11093 2.47373 18013 ft 374 kts 89°
2026-05-06 16:05 52.10604 2.51472 17624 ft 372 kts 111°
2026-05-06 16:05 52.09602 2.55337 17198 ft 369 kts 114°
2026-05-06 16:06 52.08580 2.59083 16790 ft 367 kts 114°
2026-05-06 16:06 52.07536 2.62851 16387 ft 363 kts 114°
2026-05-06 16:06 52.06495 2.66582 15986 ft 361 kts 115°
2026-05-06 16:06 52.05472 2.70239 15595 ft 359 kts 115°
2026-05-06 16:07 52.04445 2.73901 15203 ft 357 kts 115°
2026-05-06 16:07 52.03419 2.77554 14811 ft 355 kts 115°
2026-05-06 16:07 52.02404 2.81161 14420 ft 353 kts 115°
2026-05-06 16:07 52.01387 2.84767 14034 ft 351 kts 114°
2026-05-06 16:08 52.00373 2.88361 13648 ft 349 kts 114°
2026-05-06 16:08 51.99364 2.91932 13254 ft 347 kts 114°
2026-05-06 16:08 51.98360 2.95478 12874 ft 345 kts 114°
2026-05-06 16:08 51.97374 2.98953 12499 ft 343 kts 114°
2026-05-06 16:09 51.96376 3.02470 12108 ft 340 kts 114°
2026-05-06 16:09 51.95400 3.05900 11739 ft 337 kts 114°
2026-05-06 16:09 51.94431 3.09303 11362 ft 330 kts 114°
2026-05-06 16:09 51.93491 3.12601 11011 ft 321 kts 114°
2026-05-06 16:10 51.92557 3.15871 10668 ft 313 kts 114°
2026-05-06 16:10 51.91662 3.19000 10312 ft 304 kts 114°
2026-05-06 16:10 51.90789 3.22048 9984 ft 296 kts 114°
2026-05-06 16:10 51.89935 3.25027 9664 ft 289 kts 114°
2026-05-06 16:11 51.89093 3.27960 9350 ft 286 kts 114°
2026-05-06 16:11 51.88268 3.30831 9048 ft 286 kts 114°
2026-05-06 16:11 51.87428 3.33749 8717 ft 285 kts 113°
2026-05-06 16:11 51.86601 3.36618 8402 ft 283 kts 113°
2026-05-06 16:12 51.85769 3.39502 8098 ft 281 kts 113°
2026-05-06 16:12 51.84947 3.42350 7776 ft 280 kts 113°
2026-05-06 16:12 51.84128 3.45182 7469 ft 278 kts 113°
2026-05-06 16:12 51.83310 3.48005 7161 ft 276 kts 113°
2026-05-06 16:13 51.82508 3.50773 6864 ft 274 kts 113°
2026-05-06 16:13 51.81707 3.53533 6562 ft 271 kts 113°
2026-05-06 16:13 51.80902 3.56303 6255 ft 269 kts 113°
2026-05-06 16:13 51.80232 3.59079 5946 ft 266 kts 95°
2026-05-06 16:14 51.80450 3.61941 5926 ft 260 kts 71°
2026-05-06 16:14 51.80988 3.64751 5930 ft 262 kts 71°
2026-05-06 16:14 51.81544 3.67582 5923 ft 263 kts 71°
2026-05-06 16:14 51.82097 3.70369 5912 ft 263 kts 71°
2026-05-06 16:15 51.82654 3.73164 5910 ft 263 kts 71°
2026-05-06 16:15 51.83218 3.75986 5913 ft 263 kts 71°
2026-05-06 16:15 51.83779 3.78798 5909 ft 263 kts 71°
2026-05-06 16:15 51.84338 3.81597 5910 ft 263 kts 71°
2026-05-06 16:16 51.84899 3.84413 5908 ft 263 kts 71°
2026-05-06 16:16 51.85460 3.87231 5910 ft 263 kts 71°
2026-05-06 16:16 51.85994 3.90048 5905 ft 262 kts 78°
2026-05-06 16:16 51.86116 3.92987 5729 ft 265 kts 87°
2026-05-06 16:17 51.86153 3.95942 5443 ft 263 kts 87°
2026-05-06 16:17 51.86191 3.98879 5155 ft 260 kts 87°
2026-05-06 16:17 51.86227 4.01766 4869 ft 257 kts 87°
2026-05-06 16:17 51.86264 4.04677 4587 ft 256 kts 87°
2026-05-06 16:18 51.86299 4.07538 4306 ft 254 kts 87°
2026-05-06 16:18 51.86332 4.10346 4028 ft 252 kts 87°
2026-05-06 16:18 51.86366 4.13183 3748 ft 251 kts 86°
2026-05-06 16:18 51.86398 4.15974 3471 ft 249 kts 86°
2026-05-06 16:19 51.86430 4.18751 3201 ft 247 kts 86°
2026-05-06 16:19 51.86713 4.21462 2922 ft 243 kts 62°
2026-05-06 16:19 51.87566 4.23794 2692 ft 242 kts 57°
2026-05-06 16:19 51.88452 4.26023 2420 ft 233 kts 56°
2026-05-06 16:20 51.89324 4.28191 2155 ft 225 kts 56°
2026-05-06 16:20 51.90164 4.30277 1862 ft 219 kts 56°
2026-05-06 16:20 51.90975 4.32294 1606 ft 210 kts 56°
2026-05-06 16:20 51.91748 4.34217 1318 ft 200 kts 56°
2026-05-06 16:21 51.92466 4.35995 1066 ft 174 kts 56°
2026-05-06 16:21 51.93074 4.37511 837 ft 149 kts 58°
2026-05-06 16:21 51.93583 4.38798 643 ft 126 kts 57°
2026-05-06 16:21 51.94044 4.39898 462 ft 112 kts 60°
2026-05-06 16:22 51.94456 4.40962 327 ft 117 kts 58°
2026-05-06 16:22 51.94894 4.42041 164 ft 113 kts 58°
2026-05-06 16:22 51.95336 4.43143 10 ft 114 kts 57°
2026-05-06 16:22 51.95703 4.44067 -8 ft 74 kts 56°
2026-05-06 16:23 51.95895 4.44546 -11 ft 30 kts 57°
2026-05-06 16:23 51.95869 4.44717 -11 ft 15 kts 146°
2026-05-06 16:23 51.95777 4.44741 -11 ft 14 kts 225°
2026-05-06 16:23 51.95723 4.44601 -12 ft 15 kts 239°
2026-05-06 16:24 51.95659 4.44446 -11 ft 18 kts 235°
2026-05-06 16:24 51.95580 4.44249 -9 ft 22 kts 237°
2026-05-06 16:24 51.95493 4.44026 -8 ft 23 kts 237°
2026-05-06 16:24 51.95398 4.43795 -7 ft 24 kts 234°
2026-05-06 16:25 51.95304 4.43557 -7 ft 22 kts 238°
2026-05-06 16:25 51.95246 4.43440 -5 ft 9 kts 189°
2026-05-06 16:25 51.95184 4.43498 -7 ft 12 kts 144°
2026-05-06 16:25 51.95106 4.43571 -7 ft 10 kts 179°
2026-05-06 16:26 51.95081 4.43533 -5 ft 5 kts 278°
2026-05-06 16:26 51.95112 4.43486 -5 ft 2 kts 325°
2026-05-06 16:26 51.95112 4.43485 -5 ft 0 kts 326°